TimeEST,TemperatureF,Dew PointF,Humidity,Sea Level PressureIn,VisibilityMPH,Wind Direction,Wind SpeedMPH,Gust SpeedMPH,PrecipitationIn,Events,Conditions,WindDirDegrees,DateUTC
12:52 AM,19.9,6.1,55,30.19,10.0,NW,16.1,28.8,N/A,,Mostly Cloudy,310,2013-01-27 05:52:00
1:52 AM,19.0,6.1,57,30.22,10.0,NW,12.7,21.9,N/A,,Mostly Cloudy,320,2013-01-27 06:52:00
2:52 AM,19.0,5.0,54,30.23,10.0,NW,11.5,25.3,N/A,,Mostly Cloudy,320,2013-01-27 07:52:00
3:52 AM,19.0,6.1,57,30.24,10.0,NW,9.2,24.2,N/A,,Mostly Cloudy,320,2013-01-27 08:52:00
4:52 AM,18.0,8.1,65,30.25,10.0,NW,11.5,20.7,N/A,,Overcast,310,2013-01-27 09:52:00
5:52 AM,19.0,9.0,65,30.27,10.0,NW,10.4,20.7,N/A,,Mostly Cloudy,310,2013-01-27 10:52:00
6:06 AM,19.4,8.6,63,30.27,10.0,WNW,8.1,18.4,N/A,,Mostly Cloudy,300,2013-01-27 11:06:00
6:52 AM,18.0,8.1,65,30.30,10.0,WNW,9.2,20.7,N/A,,Partly Cloudy,300,2013-01-27 11:52:00
7:52 AM,19.0,9.0,65,30.32,10.0,NW,9.2,25.3,N/A,,Clear,310,2013-01-27 12:52:00
8:52 AM,21.0,9.0,60,30.34,10.0,WNW,9.2,20.7,N/A,,Clear,300,2013-01-27 13:52:00
9:52 AM,24.1,10.9,57,30.36,10.0,NW,11.5,21.9,N/A,,Clear,320,2013-01-27 14:52:00
10:52 AM,26.1,10.0,51,30.37,10.0,Variable,6.9,25.3,N/A,,Clear,0,2013-01-27 15:52:00
11:52 AM,26.1,10.0,51,30.36,10.0,NW,12.7,24.2,N/A,,Clear,310,2013-01-27 16:52:00
12:52 PM,27.0,9.0,47,30.35,10.0,NNW,8.1,20.7,N/A,,Clear,330,2013-01-27 17:52:00
1:52 PM,28.0,10.0,47,30.36,10.0,NW,11.5,23.0,N/A,,Clear,310,2013-01-27 18:52:00
2:52 PM,28.0,7.0,41,30.36,10.0,WNW,9.2,21.9,N/A,,Clear,290,2013-01-27 19:52:00
3:52 PM,28.9,7.0,40,30.36,10.0,NW,8.1,-,N/A,,Clear,320,2013-01-27 20:52:00
4:52 PM,28.0,5.0,38,30.37,10.0,Variable,5.8,-,N/A,,Clear,0,2013-01-27 21:52:00
5:52 PM,25.0,6.1,45,30.40,10.0,Calm,Calm,-,N/A,,Clear,0,2013-01-27 22:52:00
6:52 PM,26.1,5.0,41,30.42,10.0,WNW,3.5,-,N/A,,Clear,290,2013-01-27 23:52:00
7:52 PM,27.0,3.9,37,30.43,10.0,NW,4.6,-,N/A,,Clear,310,2013-01-28 00:52:00
8:52 PM,27.0,5.0,39,30.43,10.0,Variable,5.8,-,N/A,,Clear,0,2013-01-28 01:52:00
9:52 PM,26.1,6.1,43,30.43,10.0,Variable,6.9,-,N/A,,Clear,0,2013-01-28 02:52:00
11:52 PM,24.1,7.0,48,30.46,10.0,WNW,3.5,-,N/A,,Clear,290,2013-01-28 04:52:00